Location: ??????
(55.6130°N, 37.7882°E)
Time: 19:19:49
(UTC+00:00)

IDEFIX/ARIANE 42P - Pass Details

Date: 14 April 2024
Orbit: 783 x 799 km, 98.5° (Epoch: 27 May)

Event Time Altitude Azimuth Distance (km) Brightness Sun altitude
Rises 00:16:11 0° 13° (NNE) 3,289 6.9 -16.2°
Reaches altitude 10° 00:18:34 10° 9° (N) 2,357 5.9 -16.0°
Maximum altitude 00:23:34 50° 296° (WNW) 1,006 3.0 -15.5°
Enters shadow 00:26:29 24° 232° (SW) 1,601 3.5 -15.2°
